(58310) = 1994 PT20 = 1998 QZ33

Discovered at La Silla on 1994-08-12 by E. W. Elst.

Orbit

Orbit type: Main Belt

Note: WebGL enabled browser required.

epoch2024-03-31.0
epoch JD2460400.5
perihelion date2023-03-19.78450
perihelion JD2460023.28450
argument of perihelion (°)74.71650
ascending node (°)313.85633
inclination (°)1.78631
eccentricity0.2236789
perihelion distance (AU)1.9645040
Tisserand w.r.t. Jupiter3.4
ΔV w.r.t. Earth (km/sec)8.8
semimajor axis (AU)2.5305302
mean anomaly (°)92.35833
mean daily motion (°/day)0.24484240
aphelion distance (AU)3.097
period (years)4.03
P-vector [x]0.87787188
P-vector [y]0.42655014
P-vector [z]0.21770608
Q-vector [x]-0.47836777
Q-vector [y]0.80239196
Q-vector [z]0.35683529
absolute magnitude15.79
phase slope0.15
uncertainty0
referenceMPEC 2024-E144
observations used1182
oppositions22
arc length (days)25310
first opposition used1954
last opposition used2024
residual rms (arc-secs)0.67
perturbers coarse indicatorM-v
perturbers precise indicator003Ek
first observation date used1954-11-23.0
last observation date used2024-03-10.0
computer nameMPCLINUX
JD of orbit computation2456966.779043
perihelion JD uncertainty (days)8.6422E-05
argument of perihelion uncertainty (°)8.4469E-05
ascending node uncertainty (°)8.1693E-05
inclination uncertainty (°)7.2133E-06
eccentricity uncertainty 4.4194E-08
perihelion distance uncertainty (AU)1.1473E-07
Minimum Orbit Intersection Distances (in AU)
for orbit epoch: 2460400.5, reference: E2024-GF4
Mercury1.63281
Venus1.24322
Earth0.97045
Mars0.51856
Jupiter2.35276
Saturn6.51442
Uranus15.4537
Neptune27.568

Observations

1205 total observations over interval: 1954 11 23.25694 – 2024 03 10.250598
These data are available for download (format description).

Date (UT) J2000 RA J2000 Dec Magn Location Ref
1954 11 23.25694 03 20 57.13 +21 59 55.0   261 – Palomar Mountain-DSS MPS 79455
1954 11 23.28819 03 20 55.42 +21 59 48.0   261 – Palomar Mountain-DSS MPS 79455
1982 11 06.41635 23 50 32.24 +02 01 38.9   260 – Siding Spring Observatory-DSS MPS 79455
1982 11 06.45802 23 50 32.40 +02 01 38.7   260 – Siding Spring Observatory-DSS MPS 79455
1994 08 12.23611 23 15 00.08 -03 37 03.6 18.5   809 – European Southern Observatory, La Silla MPC 24356
1994 08 12.24792 23 14 59.68 -03 37 04.5   809 – European Southern Observatory, La Silla MPC 24356
1994 08 12.25972 23 14 59.31 -03 37 05.4   809 – European Southern Observatory, La Silla MPC 24356
1994 08 13.27222 23 14 31.13 -03 38 29.8   809 – European Southern Observatory, La Silla MPC 24356
1994 08 13.28403 23 14 30.73 -03 38 31.1   809 – European Southern Observatory, La Silla MPC 24356
1994 08 13.29583 23 14 30.38 -03 38 31.8   809 – European Southern Observatory, La Silla MPC 24356
1994 09 05.26042 22 58 04.75 -04 47 42.4 18.4   809 – European Southern Observatory, La Silla MPC 24687
1994 09 05.27361 22 58 04.05 -04 47 46.5   809 – European Southern Observatory, La Silla MPC 24687
1994 09 05.28681 22 58 03.27 -04 47 49.3   809 – European Southern Observatory, La Silla MPC 24687
1994 09 06.21667 22 57 15.02 -04 51 36.1   809 – European Southern Observatory, La Silla MPC 24687
1994 09 06.22986 22 57 14.30 -04 51 40.9   809 – European Southern Observatory, La Silla MPC 24687
1994 09 06.24306 22 57 13.61 -04 51 42.9   809 – European Southern Observatory, La Silla MPC 24687
1998 08 17.35359 22 48 52.21 -06 23 33.1 18.6   704 – Lincoln Laboratory ETS, New Mexico MPS 2026
1998 08 17.37484 22 48 51.29 -06 23 37.3 19.0   704 – Lincoln Laboratory ETS, New Mexico MPS 2026
1998 08 17.39601 22 48 50.30 -06 23 40.4 19.2   704 – Lincoln Laboratory ETS, New Mexico MPS 2026
1998 08 17.41691 22 48 49.39 -06 23 45.6 19.2   704 – Lincoln Laboratory ETS, New Mexico MPS 2026
1998 08 17.43786 22 48 48.41 -06 23 49.3 19.2   704 – Lincoln Laboratory ETS, New Mexico MPS 2026
1998 08 23.34713 22 44 15.32 -06 43 00.7 18.5   704 – Lincoln Laboratory ETS, New Mexico MPS 2026
1998 08 23.35940 22 44 14.72 -06 43 05.1 18.9   704 – Lincoln Laboratory ETS, New Mexico MPS 2026
1998 08 23.37186 22 44 14.05 -06 43 05.0 19.0   704 – Lincoln Laboratory ETS, New Mexico MPS 2026
1998 08 23.39631 22 44 12.81 -06 43 10.1 19.1   704 – Lincoln Laboratory ETS, New Mexico MPS 2026
1998 08 26.22242 22 41 51.59 -06 53 31.1 18.1 R 699 – Lowell Observatory-LONEOS MPS 2026
1998 08 26.25222 22 41 50.03 -06 53 38.0   699 – Lowell Observatory-LONEOS MPS 2026
1998 08 26.28201 22 41 48.43 -06 53 44.7   699 – Lowell Observatory-LONEOS MPS 2026
1998 09 14.14761 22 25 34.32 -08 07 26.8 18.4   704 – Lincoln Laboratory ETS, New Mexico MPS 2187
1998 09 14.16955 22 25 33.28 -08 07 31.5 18.6   704 – Lincoln Laboratory ETS, New Mexico MPS 2187
1998 09 14.19150 22 25 32.17 -08 07 35.5 18.0   704 – Lincoln Laboratory ETS, New Mexico MPS 2187
1998 09 14.19806 22 25 31.83 -08 07 37.6 18.8 V 691 – Steward Observatory, Kitt Peak-Spacewatch MPS 79455
1998 09 14.21350 22 25 31.12 -08 07 41.2 19.1   704 – Lincoln Laboratory ETS, New Mexico MPS 2187
1998 09 14.21912 22 25 30.77 -08 07 42.2 18.8 V 691 – Steward Observatory, Kitt Peak-Spacewatch MPS 79455
1998 09 14.23565 22 25 29.96 -08 07 45.0 19.0   704 – Lincoln Laboratory ETS, New Mexico MPS 2187
1998 09 14.24052 22 25 29.71 -08 07 46.9 18.9 V 691 – Steward Observatory, Kitt Peak-Spacewatch MPS 79455
1998 09 14.35509 22 25 24.00 -08 08 11.4 18.5 R 699 – Lowell Observatory-LONEOS MPS 2187
1998 09 14.36927 22 25 23.27 -08 08 14.6   699 – Lowell Observatory-LONEOS MPS 2187
1998 09 14.38418 22 25 22.70 -08 08 16.6   699 – Lowell Observatory-LONEOS MPS 2187
1998 09 18.25049 22 22 29.09 -08 21 34.6 18.6   704 – Lincoln Laboratory ETS, New Mexico MPS 2187
1998 09 18.26333 22 22 28.37 -08 21 38.9 18.9   704 – Lincoln Laboratory ETS, New Mexico MPS 2187
1998 09 18.27623 22 22 27.85 -08 21 38.9 18.9   704 – Lincoln Laboratory ETS, New Mexico MPS 2187
1998 09 18.28907 22 22 27.44 -08 21 38.9 18.9   704 – Lincoln Laboratory ETS, New Mexico MPS 2187
1998 09 25.11755 22 18 10.46 -08 41 11.0 19.3   704 – Lincoln Laboratory ETS, New Mexico MPS 2187
1998 09 25.14097 22 18 09.84 -08 41 13.5 18.8   704 – Lincoln Laboratory ETS, New Mexico MPS 2187
1998 09 25.16416 22 18 08.95 -08 41 17.8 18.8   704 – Lincoln Laboratory ETS, New Mexico MPS 2187
1998 09 25.18730 22 18 08.01 -08 41 21.0 18.8   704 – Lincoln Laboratory ETS, New Mexico MPS 2187
1998 09 25.21045 22 18 07.39 -08 41 24.2 18.8   704 – Lincoln Laboratory ETS, New Mexico MPS 2187
1998 09 27.11907 22 17 09.35 -08 45 46.1 18.7   704 – Lincoln Laboratory ETS, New Mexico MPS 2187
1998 09 27.13688 22 17 08.90 -08 45 46.4 18.8   704 – Lincoln Laboratory ETS, New Mexico MPS 2187
1998 09 27.15456 22 17 08.44 -08 45 49.0 18.8   704 – Lincoln Laboratory ETS, New Mexico MPS 2187
1998 09 27.17225 22 17 07.72 -08 45 50.7 18.8   704 – Lincoln Laboratory ETS, New Mexico MPS 2187
1998 09 27.19030 22 17 07.15 -08 45 54.2 18.8   704 – Lincoln Laboratory ETS, New Mexico MPS 2187
2000 01 10.44172 10 37 27.55 +08 21 22.1 19.5 V 691 – Steward Observatory, Kitt Peak-Spacewatch MPS 11778
2000 01 10.46774 10 37 27.02 +08 21 23.6 19.5 V 691 – Steward Observatory, Kitt Peak-Spacewatch MPS 11778
2000 01 10.49701 10 37 26.43 +08 21 25.9 19.5 V 691 – Steward Observatory, Kitt Peak-Spacewatch MPS 11778
2000 01 16.49958 10 35 06.36 +08 30 53.7 19.4 V 691 – Steward Observatory, Kitt Peak-Spacewatch MPS 8347
2000 01 16.51358 10 35 05.93 +08 30 55.5 19.5 V 691 – Steward Observatory, Kitt Peak-Spacewatch MPS 8347
2000 01 16.52792 10 35 05.53 +08 30 57.2 19.4 V 691 – Steward Observatory, Kitt Peak-Spacewatch MPS 8347
2000 02 29.17870 09 58 46.38 +11 27 01.3 19.5   704 – Lincoln Laboratory ETS, New Mexico MPS 10713
2000 02 29.19297 09 58 45.51 +11 27 04.1 20.0   704 – Lincoln Laboratory ETS, New Mexico MPS 10713
2000 02 29.20634 09 58 44.85 +11 27 06.6 19.6   704 – Lincoln Laboratory ETS, New Mexico MPS 10713
2000 02 29.21971 09 58 44.07 +11 27 13.1 19.9   704 – Lincoln Laboratory ETS, New Mexico MPS 10713
2000 02 29.23310 09 58 43.35 +11 27 15.4 19.9   704 – Lincoln Laboratory ETS, New Mexico MPS 10713
2000 03 03.18784 09 56 06.80 +11 39 48.1   704 – Lincoln Laboratory ETS, New Mexico MPS 10713
2000 03 03.20112 09 56 05.98 +11 39 51.4   704 – Lincoln Laboratory ETS, New Mexico MPS 10713
2000 03 03.21439 09 56 05.33 +11 39 54.2   704 – Lincoln Laboratory ETS, New Mexico MPS 10713
2000 03 03.22764 09 56 04.63 +11 39 57.9   704 – Lincoln Laboratory ETS, New Mexico MPS 10713
2000 03 03.24090 09 56 03.92 +11 40 00.5   704 – Lincoln Laboratory ETS, New Mexico MPS 10713
2000 03 05.24383 09 54 22.16 +11 48 08.2 19.1   704 – Lincoln Laboratory ETS, New Mexico MPS 10713
2000 03 05.25712 09 54 21.43 +11 48 11.3 19.3   704 – Lincoln Laboratory ETS, New Mexico MPS 10713
2000 03 05.28370 09 54 20.11 +11 48 17.2 19.6   704 – Lincoln Laboratory ETS, New Mexico MPS 10713
2000 03 05.29701 09 54 19.44 +11 48 20.6 19.1   704 – Lincoln Laboratory ETS, New Mexico MPS 10713
2002 08 08.46629 22 30 32.04 -08 37 53.0 18.2   644 – Palomar Mountain/NEAT MPS 59524
2002 08 08.47721 22 30 31.56 -08 37 54.6 18.3   644 – Palomar Mountain/NEAT MPS 59524
2002 08 08.48713 22 30 31.16 -08 37 56.0 18.3   644 – Palomar Mountain/NEAT MPS 59524
2002 08 10.34444 22 29 15.11 -08 42 52.5 18.1   704 – Lincoln Laboratory ETS, New Mexico MPS 59524
2002 08 10.35635 22 29 14.53 -08 42 54.8 18.0   704 – Lincoln Laboratory ETS, New Mexico MPS 59524
2002 08 10.36823 22 29 14.01 -08 42 56.8 17.8   704 – Lincoln Laboratory ETS, New Mexico MPS 59524
2002 08 10.38011 22 29 13.50 -08 42 59.1 18.2   704 – Lincoln Laboratory ETS, New Mexico MPS 59524
2002 08 10.39200 22 29 12.96 -08 43 00.7 17.8   704 – Lincoln Laboratory ETS, New Mexico MPS 59524
2002 08 13.36148 22 27 01.87 -08 51 48.6 17.9 R 699 – Lowell Observatory-LONEOS MPS 59524
2002 08 13.37718 22 27 01.09 -08 51 52.1   699 – Lowell Observatory-LONEOS MPS 59524
2002 08 13.39296 22 27 00.33 -08 51 54.5   699 – Lowell Observatory-LONEOS MPS 59524
